Temp
5 5 5 5 5 5 7 4 6 10 8 7 8 9 8 10 10 11 11 11 11 10 10 10 11 11 11 11 12 11 11 9 9 11 10 10 10 10 9 9 9 7 8 12
5 5 5 4 5 5 5 4 4 10 8 9 9 9 10 9 10 11 12 12 12 11 11 11 11 11 11 11 12 11 11 9 7 10 10 10 10 9 9 7 7 7 11 14
5 5 4 4 4 6 6 3 5 5 5 7 9 9 9 10 10 11 12 11 12 12 11 10 10 11 11 11 12 13 12 9 9 10 9 9 9 9 9 9 8 9 9 10
5 5 4 4 4 6 6 3 6 7 7 7 7 8 9 10 10 10 11 12 12 12 11 11 10 11 11 12 13 11 11 8 7 9 10 9 10 10 9 8 9 9 11 9
5 4 4 4 4 6 5 5 6 7 6 5 7 8 10 10 11 10 11 11 11 12 11 11 10 10 10 11 11 11 10 8 7 7 9 8 8 9 9 9 10 9 10 11
4 4 4 4 4 5 5 5 5 6 6 5 7 8 10 11 10 10 10 11 11 11 11 10 11 10 10 11 10 10 11 8 6 7 9 8 8 9 9 9 9 11 10 12
4 4 4 4 4 4 4 3 3 6 5 5 6 7 7 9 10 11 10 11 12 11 9 9 9 8 9 9 10 10 10 9 7 6 8 9 12 10 10 10 10 10 10 11
4 4 4 4 4 4 4 3 3 5 6 7 6 7 6 7 9 10 11 10 9 9 11 10 10 12 12 11 10 10 11 10 7 8 9 9 12 10 9 10 13 10 11 12
4 4 4 4 4 4 4 3 3 2 4 4 6 8 8 6 7 8 10 10 8 9 8 9 10 9 10 10 10 10 9 10 10 9 9 10 12 13 11 12 12 12 10 11
4 4 4 4 4 4 4 3 3 2 2 3 6 5 7 8 7 6 6 9 10 9 9 10 9 8 10 9 10 10 10 10 10 10 11 9 10 12 12 13 13 13 11 11
4 3 4 4 4 4 4 4 3 3 0 1 3 4 4 5 7 8 7 8 8 8 10 11 10 8 9 8 9 11 11 10 11 11 10 9 11 11 12 13 12 12 11 11
4 3 3 3 3 4 4 3 4 3 2 2 4 4 4 5 4 4 6 7 7 7 8 7 7 8 7 9 11 9 10 9 9 9 9 10 11 13 12 10 10 11 11 10
4 3 3 3 3 3 3 3 3 1 2 3 2 2 4 3 3 4 4 7 8 7 6 7 7 9 7 9 10 9 9 9 10 10 11 9 10 11 10 10 9 10 9 9
3 3 3 3 3 3 3 3 3 2 2 2 3 3 3 5 4 3 4 6 6 4 6 9 8 8 7 7 8 8 8 9 9 9 10 11 10 10 12 11 10 9 8 8
3 3 3 3 3 3 3 3 3 2 2 2 2 3 3 3 4 3 3 3 4 4 5 8 9 7 7 6 7 7 7 9 9 10 10 10 10 10 9 9 8 8 7 7
3 3 3 3 3 3 3 2 2 2 2 1 2 2 1 3 3 3 3 4 4 3 5 9 7 7 8 7 8 9 7 7 9 9 9 8 8 7 7 7 6 7 7 6
3 3 3 3 3 2 2 3 3 2 1 2 -1 -1 2 4 3 1 1 3 4 4 5 8 7 7 8 8 8 9 7 8 8 8 8 8 8 8 5 4 5 6 6 5
3 3 3 3 3 3 2 2 2 2 1 1 1 -0 3 4 5 6 4 4 4 6 7 8 7 8 7 8 8 7 7 6 7 5 5 6 5 5 5 5 5 5 5 4
3 3 3 2 2 2 2 2 2 2 1 1 2 2 3 5 6 6 6 6 6 6 8 9 8 8 9 9 7 6 5 6 5 3 2 2 3 3 4 5 5 4 4 3
3 3 3 2 2 2 2 2 2 2 1 1 2 3 4 4 5 7 7 6 7 7 8 8 9 8 5 4 3 3 3 3 2 3 2 0 -0 1 3 3 3 4 3 3
2 1 1 2 2 2 2 3 3 3 3 3 2 3 4 5 6 8 8 7 7 8 8 9 9 10 5 2 2 1 1 1 1 1 1 2 2 2 2 2 2 3 3 2
2 1 1 1 2 2 3 3 3 4 4 5 5 5 5 6 7 8 7 7 7 8 8 8 8 5 1 2 1 1 -0 0 2 3 3 3 3 3 2 2 3 4 4 3
1 1 1 1 2 3 3 3 3 4 4 4 4 4 5 7 7 7 7 8 8 5 8 8 4 2 1 0 0 0 -0 0 2 2 2 2 2 2 3 3 4 4 3 2
-2 -2 -1 0 1 3 3 2 3 2 3 3 3 4 6 6 6 7 6 6 6 7 7 6 4 1 0 0 0 -0 -1 -1 -0 -0 0 1 1 1 2 1 2 2 2 2
-3 -2 -1 -1 1 -0 -0 -1 1 -0 2 2 3 4 5 6 6 6 5 7 8 8 7 1 -2 1 1 -0 -0 -1 -1 -1 -1 -1 -0 -0 0 1 1 1 1 2 1 1
-4 -2 -2 -1 -2 -1 -2 -3 -0 1 2 2 2 4 6 6 6 7 7 7 6 6 0 -0 1 1 -1 -1 -1 -1 -1 -1 -1 -1 -1 -1 -1 -1 -0 1 0 1 0 0
-2 -4 -3 -4 -4 -1 -1 0 1 1 2 3 4 6 7 5 6 6 4 6 5 -0 0 -1 -0 -1 -1 -2 -1 -1 -1 -2 -2 -3 -2 -2 -2 -1 -1 -2 -2 -1 -0 -0
Height
805 799 792 787 780 771 767 766 775 760 758 766 766 766 767 761 758 755 754 756 760 764 766 769 769 771 769 769 770 774 779 796 803 795 798 797 796 801 807 815 823 834 827 788
805 800 794 787 780 775 771 774 775 761 759 772 771 768 765 764 760 757 753 754 754 759 764 768 769 770 769 769 769 773 777 798 816 799 801 799 797 803 806 817 824 828 805 780
807 802 795 788 780 774 773 776 781 774 769 773 770 771 771 765 760 757 756 757 756 757 762 767 770 770 771 771 768 768 773 792 798 798 798 798 803 802 804 806 816 812 805 791
807 802 797 790 781 775 774 778 782 781 782 778 779 773 768 765 765 760 757 756 755 758 765 766 769 769 770 770 768 773 776 799 806 793 791 797 794 794 801 806 801 802 789 794
808 803 798 792 784 776 777 783 784 781 782 783 780 774 767 764 762 762 758 759 758 756 762 763 771 769 771 771 773 775 781 797 804 805 792 797 798 793 795 795 793 794 792 785
809 804 800 796 789 782 783 787 786 785 783 784 779 777 768 762 762 761 759 758 758 761 762 762 762 763 765 765 773 779 779 794 811 806 796 797 797 786 785 785 788 782 790 770
808 805 802 799 795 791 790 790 789 784 786 786 782 778 777 767 765 758 760 758 755 761 762 763 766 770 771 771 773 772 782 787 802 816 801 800 765 769 771 773 773 778 773 768
808 806 804 801 798 795 792 792 791 789 782 780 782 779 778 772 766 762 760 760 760 760 761 769 771 766 765 772 775 773 771 782 802 804 792 784 759 767 771 769 759 766 767 762
808 805 803 802 799 797 795 794 793 792 792 789 782 777 775 778 774 769 761 761 761 761 769 770 774 782 773 779 776 776 778 778 786 791 793 784 760 754 757 756 763 756 763 760
807 805 802 801 799 797 796 795 794 793 795 787 782 784 778 774 775 777 771 762 763 764 769 769 774 779 770 776 775 773 777 779 779 784 778 777 760 753 755 759 762 753 756 757
805 803 801 798 798 797 795 794 793 795 795 787 782 781 781 780 773 770 771 769 766 769 765 761 764 774 770 774 771 763 768 775 771 774 781 784 755 757 756 753 752 751 753 752
803 800 799 797 796 795 794 793 792 792 792 784 778 776 777 778 778 783 772 766 765 761 765 771 772 767 771 767 755 767 770 767 770 770 768 755 751 748 748 751 751 750 750 750
801 798 797 795 794 793 793 791 790 790 789 778 773 765 765 768 769 773 777 763 757 759 761 761 763 759 764 761 759 762 759 758 760 759 748 754 752 748 749 749 749 747 748 748
799 797 794 793 790 789 789 788 788 789 788 781 764 761 760 760 761 763 766 761 760 765 761 753 755 759 758 763 756 757 755 755 755 756 749 746 746 746 745 746 746 746 746 746
796 794 792 789 787 786 784 783 783 784 786 778 765 759 752 754 755 758 761 764 767 771 762 747 749 753 756 761 758 758 751 748 750 749 745 745 745 744 745 745 745 743 742 742
794 791 788 786 783 781 781 781 781 781 782 782 771 758 752 751 751 754 757 760 764 769 764 741 744 741 744 758 752 740 742 742 740 742 744 745 744 744 744 744 743 740 739 740
791 788 785 782 780 779 780 781 781 780 780 780 779 767 749 746 748 751 754 757 759 762 761 740 740 740 740 746 747 734 739 738 740 741 742 741 740 740 742 741 739 738 737 738
788 784 781 779 778 779 779 778 778 779 781 781 778 771 751 743 739 739 742 750 757 749 744 736 734 737 742 741 735 738 739 740 740 743 745 743 742 741 738 736 736 735 735 736
784 780 778 779 778 778 778 776 777 778 782 778 773 765 751 736 734 733 737 739 744 740 732 728 729 733 731 729 732 736 739 739 741 744 744 744 742 741 737 735 734 735 734 734
781 779 778 777 778 776 776 773 776 776 775 775 768 759 749 740 733 729 733 733 727 730 725 725 724 730 736 737 739 741 742 743 743 744 743 745 743 740 736 734 733 732 731 731
781 780 779 778 776 775 774 772 771 771 767 765 759 752 744 734 728 719 722 723 727 722 723 722 726 717 733 739 740 742 742 742 742 742 741 740 739 737 734 730 728 727 727 727
784 783 780 778 775 774 773 770 768 765 760 752 749 745 741 731 724 722 725 726 728 728 726 725 726 730 742 741 742 742 742 741 740 739 738 737 734 732 729 726 723 722 722 723
781 782 780 779 778 774 771 770 768 761 758 758 755 749 739 730 728 727 726 724 726 736 726 725 734 740 742 743 743 743 742 740 739 738 737 735 732 729 727 725 722 721 721 722
785 788 789 783 781 773 772 774 769 768 764 760 757 748 739 735 731 728 730 733 731 727 727 731 733 741 742 743 743 741 742 742 741 740 738 735 733 729 727 725 724 722 723 724
791 791 792 785 776 777 775 775 770 768 763 761 756 749 741 735 733 729 734 729 722 719 724 738 741 737 739 742 742 743 743 743 742 741 738 735 733 731 728 726 725 725 725 726
789 788 788 781 784 777 776 775 770 764 762 760 757 747 736 730 730 728 724 726 729 725 735 733 733 736 740 741 742 743 743 743 742 740 738 737 735 733 731 729 727 726 726 726
787 787 782 784 784 777 773 768 766 764 763 757 752 740 730 735 728 731 733 726 724 731 730 732 733 736 738 740 742 742 742 742 741 740 738 737 735 733 731 730 729 727 726 726
Wind_Speed
25 29 31 32 31 29 9 2 3 11 9 4 2 2 5 6 4 3 3 4 3 3 2 3 2 5 2 5 5 3 2 4 3 1 1 1 1 3 4 3 4 1 1 4
25 28 30 32 32 23 7 2 1 6 5 3 3 3 4 2 5 4 3 2 1 1 4 4 3 3 2 5 4 6 5 1 3 1 1 1 3 3 3 3 2 5 3 3
24 26 29 32 33 19 4 2 3 4 4 2 2 3 4 4 2 2 2 2 2 3 3 4 4 3 2 4 2 7 5 3 4 4 4 3 3 4 4 4 3 3 5 5
23 24 27 31 33 16 4 3 2 0 2 3 4 2 0 2 4 3 3 3 1 3 3 2 2 2 3 3 5 3 3 3 2 2 3 3 3 4 8 7 4 5 3 5
20 22 23 27 31 15 7 2 2 3 1 2 3 2 2 2 2 1 3 4 1 1 4 5 7 5 2 4 1 3 2 3 2 3 1 4 4 7 8 10 7 9 7 16
18 20 19 22 26 16 6 5 3 1 3 4 1 3 3 2 1 1 2 3 3 3 2 2 2 1 3 6 7 3 5 5 2 3 2 4 5 11 13 6 5 9 8 10
15 17 16 18 18 22 6 5 2 2 2 2 1 4 2 4 5 1 1 2 2 4 4 4 6 7 6 6 3 3 5 4 2 2 2 1 3 3 8 15 5 11 6 8
14 15 14 13 13 16 10 8 3 2 2 2 3 5 4 7 5 2 1 1 2 1 2 3 3 1 1 3 4 2 2 4 2 1 3 6 1 3 6 6 3 11 13 13
13 15 12 13 10 12 12 10 7 2 2 2 3 4 3 3 3 5 2 1 1 3 2 2 4 4 4 3 1 4 4 4 3 3 2 3 4 2 3 2 0 4 6 8
13 12 14 8 10 9 9 2 8 2 1 3 1 3 3 2 2 2 4 1 0 2 2 2 3 4 4 5 7 5 3 2 4 4 3 6 7 3 2 3 3 3 4 6
15 13 13 15 5 7 7 5 2 2 1 5 3 2 2 3 3 2 2 1 1 2 3 3 3 3 5 4 5 6 8 7 4 5 3 7 5 4 5 3 2 3 3 4
15 13 13 17 5 7 7 3 2 6 3 5 14 21 21 17 13 3 3 3 2 4 3 1 2 2 2 5 3 2 4 6 5 7 5 4 3 2 4 4 4 4 2 3
14 15 12 17 16 6 6 11 8 3 2 7 6 7 11 17 27 26 4 3 2 2 1 3 2 3 3 4 5 4 3 4 3 2 3 6 7 5 3 1 3 3 4 3
15 14 14 12 18 10 9 11 6 4 3 3 4 5 8 8 12 23 30 13 1 5 4 2 2 3 3 3 2 3 4 6 5 4 5 3 1 4 2 2 3 5 5 4
17 15 10 18 16 15 13 11 12 13 4 3 6 15 15 20 17 17 25 19 8 2 4 2 3 3 3 0 1 3 4 6 4 4 4 2 5 4 3 6 7 7 5 4
14 17 18 19 19 10 4 1 2 5 7 2 4 5 4 4 12 19 19 13 3 3 4 3 3 3 3 3 4 4 4 3 3 3 1 4 7 7 2 2 6 5 5 5
16 17 19 17 9 4 2 1 2 3 2 1 4 5 4 3 4 4 3 11 4 3 3 3 3 3 4 3 3 4 6 5 2 1 1 4 3 3 7 6 7 5 1 2
17 21 19 10 3 2 4 1 2 3 1 1 3 4 4 7 3 4 3 5 4 5 3 2 2 2 2 3 4 4 3 2 0 4 3 5 7 7 7 5 2 3 4 2
19 18 8 3 1 1 1 3 4 9 2 1 2 3 3 2 2 1 2 2 4 3 3 3 3 2 4 4 4 5 3 2 2 6 6 6 4 6 6 5 4 5 4 4
13 5 2 1 1 7 8 3 1 2 2 2 3 2 3 3 1 0 4 4 2 2 3 3 2 3 1 3 3 3 1 0 1 3 4 4 3 5 6 6 6 6 5 4
5 4 1 5 6 2 1 1 2 2 3 3 3 4 3 3 3 2 1 1 2 1 1 1 2 3 3 2 2 1 2 2 4 5 6 6 8 8 8 9 7 8 9 6
7 8 6 4 2 1 1 2 2 3 2 2 4 4 3 4 2 2 2 2 1 1 1 1 2 1 1 2 3 3 4 4 4 3 4 6 6 8 6 6 6 8 10 9
2 0 2 1 1 2 0 2 2 2 3 3 3 5 3 3 2 1 0 2 2 1 2 3 2 3 2 2 1 2 5 6 5 5 7 8 10 10 8 8 9 3 4 7
2 2 5 1 2 2 1 2 2 3 3 7 6 3 2 2 2 1 1 1 1 0 2 4 3 5 5 3 2 3 4 5 5 5 6 7 8 9 10 10 8 6 2 4
1 3 2 3 2 3 3 2 3 3 3 5 5 4 3 2 2 1 1 1 3 3 3 2 3 5 4 3 2 3 4 4 4 5 6 8 10 9 8 11 9 7 4 3
2 2 2 2 1 3 2 1 3 1 3 2 2 3 3 3 1 2 4 2 4 3 3 2 5 5 5 3 2 1 1 3 4 5 7 7 9 9 8 8 10 8 4 3
1 3 2 2 3 4 3 2 2 3 2 2 2 3 2 2 1 2 2 4 3 2 2 2 5 6 6 5 3 2 3 4 6 6 8 10 10 10 12 8 14 10 6 4
Wind_Direction
359 355 353 354 358 354 353 71 37 341 354 44 33 21 339 335 346 360 55 114 119 115 105 93 109 170 211 175 151 95 99 117 131 126 144 232 119 148 139 138 213 75 118 274
357 357 355 354 356 360 334 59 271 336 354 68 354 334 320 306 354 358 15 63 76 127 138 117 129 146 330 154 151 159 175 70 88 49 29 24 194 179 126 104 87 194 155 255
356 357 356 355 355 0 3 73 40 332 36 18 131 18 343 334 342 328 26 118 73 100 74 34 151 128 36 206 168 120 93 104 148 180 191 132 181 181 182 138 146 173 232 293
358 357 358 357 358 4 17 35 62 125 334 355 357 301 199 345 358 352 19 43 168 138 101 70 115 107 111 95 152 66 100 117 102 231 183 161 198 185 187 198 175 177 251 224
357 359 1 0 1 7 70 52 28 348 289 306 309 294 359 12 323 340 4 121 72 163 155 183 195 143 153 177 102 114 36 114 89 328 79 205 247 235 210 218 223 254 268 288
355 359 4 7 8 25 62 10 329 261 313 335 47 331 314 311 233 254 175 151 106 58 292 226 256 180 145 162 144 135 135 139 88 279 5 321 286 228 203 198 202 201 206 232
355 357 0 8 12 23 50 24 311 328 292 2 320 332 335 319 331 204 314 9 124 185 147 114 64 59 80 98 71 142 139 113 93 229 360 251 250 160 181 208 202 215 257 260
338 347 356 0 11 16 38 26 38 5 287 324 324 345 316 305 308 315 271 204 177 48 63 77 72 111 111 68 46 199 168 121 114 110 254 286 220 176 150 179 232 204 224 256
347 353 357 353 3 8 21 35 24 14 338 263 313 308 314 310 315 331 293 357 346 81 91 96 158 186 178 201 116 12 77 91 127 186 263 244 246 193 172 229 38 186 196 250
339 334 337 346 347 347 2 39 29 67 259 272 254 229 303 291 266 254 298 250 175 23 130 140 174 227 172 164 178 172 145 151 190 194 248 284 245 191 163 141 196 196 200 239
328 324 322 320 314 338 338 315 319 77 256 271 240 265 238 328 261 238 315 20 283 90 199 182 190 180 214 145 189 179 182 176 190 197 214 263 169 93 177 189 211 233 248 231
331 319 319 328 345 335 316 292 279 271 192 255 279 258 253 250 244 309 283 304 251 214 130 193 122 177 150 184 200 172 203 179 178 190 210 239 206 209 225 195 223 248 230 245
330 337 296 316 322 329 299 287 278 251 264 277 257 251 255 248 242 226 218 238 320 66 257 169 176 216 138 169 226 187 235 180 199 155 234 223 240 264 257 238 231 251 244 252
318 334 311 308 314 314 301 279 260 228 272 274 274 255 247 271 252 220 221 250 44 9 310 212 176 199 175 199 186 183 196 141 185 255 287 265 278 193 153 293 280 278 273 234
318 324 317 314 320 315 299 282 266 240 208 276 291 300 283 251 235 213 218 227 248 238 282 194 210 156 129 304 95 238 190 180 172 215 209 176 247 269 322 280 288 276 256 256
326 330 325 319 317 310 266 279 51 138 207 321 303 309 298 318 226 213 223 220 160 156 226 219 220 225 129 155 204 235 197 192 161 181 176 219 254 277 199 314 303 295 258 234
326 321 319 321 311 262 189 209 138 178 147 271 298 304 265 268 180 160 162 192 199 159 225 256 193 193 148 150 214 205 180 165 137 65 8 285 195 258 312 289 282 284 282 281
328 326 321 321 284 239 241 257 252 204 153 232 292 276 291 182 182 167 148 138 155 217 214 252 156 108 92 245 222 154 135 352 211 115 13 280 298 300 296 282 268 244 245 238
325 324 310 256 263 251 254 330 304 217 201 251 252 270 282 319 122 226 119 117 171 226 221 225 135 135 210 229 177 172 157 152 222 315 297 286 277 306 311 319 272 250 253 221
325 342 344 281 344 318 313 102 186 194 194 216 252 260 268 308 18 4 166 187 189 155 245 120 129 240 96 77 79 93 93 314 25 317 329 327 301 291 300 284 276 259 251 231
354 358 285 309 329 314 242 246 228 191 238 210 241 242 273 211 232 173 188 172 144 127 132 132 176 247 160 127 121 32 347 318 276 240 256 251 256 276 285 286 262 251 244 221
310 294 304 306 324 271 291 256 271 232 271 291 306 304 255 290 306 57 358 79 19 152 119 161 239 232 99 73 37 10 358 335 315 317 320 311 306 313 294 278 272 259 252 215
321 270 325 338 303 287 273 326 287 282 347 2 318 314 300 298 343 28 8 125 155 206 174 225 220 160 130 102 46 65 29 20 20 6 351 350 344 346 348 342 356 345 169 183
67 48 329 147 312 263 242 227 273 287 291 319 315 280 283 298 318 304 65 314 9 13 256 242 184 187 159 130 79 73 31 13 9 356 338 359 355 350 354 8 6 354 301 195
65 70 254 234 250 259 256 255 276 259 290 311 306 280 244 262 275 244 149 192 236 228 231 230 194 149 139 115 89 61 37 11 2 342 353 354 354 352 351 6 5 357 338 231
78 218 281 249 350 288 320 271 266 266 305 268 238 275 279 256 223 202 221 167 233 252 213 192 135 146 153 138 107 83 42 12 347 357 6 4 4 353 343 7 15 5 354 289
214 257 255 198 252 241 235 223 261 334 308 286 304 248 253 304 235 255 217 207 224 204 183 170 153 167 169 159 147 106 51 25 15 15 20 12 14 25 25 12 356 354 342 312